Location: Ospringe
(51.3000°N, 0.8667°E)
Time: 02:20:56
(UTC+00:00)

Daily predictions for brighter satellites

Satellite Brightness Start Highest point End
(mag) Time Altitude Azimuth Time Altitude Azimuth Time Altitude Azimuth
Meteor 1-24 Rocket 3.9 00:02:18 21° SSW 00:06:18 72° WNW 00:11:56 10° N
USA 234 4.0 00:00:09 10° ENE 00:06:31 56° N 00:12:52 10° W
Cosmos 2227 Rocket 2.7 00:05:20 23° S 00:08:32 47° ESE 00:13:58 10° NE
Cosmos 304 Rocket 3.8 00:06:24 21° SSW 00:09:30 76° WNW 00:14:18 10° NNE
Cosmos 1892 2.5 00:09:05 33° S 00:10:30 72° E 00:14:00 10° NNE
Cosmos 332 Rocket 4.1 00:09:47 25° S 00:12:25 57° ESE 00:17:15 10° NNE
Cosmos 2181 Rocket 4.1 00:06:47 10° NNW 00:12:56 65° W 00:16:56 22° S
Cosmos 1980 4.1 00:08:04 10° NW 00:13:30 48° WSW 00:16:41 23° S
CENTAUR R/B 3.2 00:12:18 22° S 00:15:26 38° ESE 00:21:45 10° NE
GEOS 3 Rocket 3.9 00:14:02 10° NE 00:19:06 52° SE 00:22:03 24° SSW
H-2A R/B 2.0 00:17:25 10° NNE 00:21:43 83° WNW 00:24:02 26° SSW
Cosmos 1538 Rocket 4.1 00:17:47 10° NNW 00:23:00 76° ENE 00:27:12 16° SSE
Cosmos 1503 Rocket 4.2 00:19:44 19° SW 00:23:36 69° WNW 00:28:54 10° NNE
Cosmos 1777 Rocket 4.1 00:21:13 21° SSW 00:24:49 79° WNW 00:30:08 10° NNE
SL-4 R/B 2.7 00:21:34 10° W 00:25:15 33° SSW 00:26:25 28° S
Cosmos 2151 Rocket 4.1 00:22:44 10° NNW 00:26:57 46° W 00:29:10 24° SSW
Cosmos 1174 4.4 00:23:41 10° NW 00:28:31 47° WSW 00:30:27 27° S
Cosmos 2297 Rocket 2.3 00:24:22 18° SW 00:28:38 76° WNW 00:34:19 10° NNE
Cosmos 2074 Rocket 4.0 00:24:31 22° S 00:28:43 90° E 00:34:58 10° N
NOSS 8 (A) 4.3 00:25:48 10° NW 00:28:43 58° SW 00:30:08 30° SSE
Cosmos 2219 3.9 00:27:36 21° SSE 00:30:53 40° ESE 00:36:06 10° NE
Cosmos 2084 Rocket 3.4 00:29:51 26° SSW 00:32:10 66° SE 00:36:16 10° NE
ALOS 2 4.5 00:30:59 14° SW 00:33:06 19° W 00:36:12 10° NW
Okean 2 Rocket 3.7 00:29:29 10° NNW 00:33:44 44° W 00:36:03 24° SSW
Cosmos 1455 Rocket 3.5 00:30:03 10° N 00:34:28 59° ENE 00:37:36 18° SSE
ATLAS CENTAUR R/B 4.2 00:37:15 10° NW 00:39:05 13° NNW 00:40:57 10° NNE
Aureole 1 Rocket 3.9 00:38:34 21° SSE 00:40:19 32° ESE 00:44:14 10° NE
Cosmos 1825 2.5 00:42:47 26° SW 00:44:22 48° WNW 00:47:43 10° N
Cosmos 1674 Rocket 4.1 00:41:51 22° SW 00:44:27 49° WNW 00:48:42 10° N
Cosmos 1378 Rocket 4.4 00:43:13 19° SW 00:45:55 41° WNW 00:50:06 10° N
Cosmos 923 Rocket 4.5 00:45:48 10° NNW 00:51:02 61° ENE 00:56:13 10° SE
Cosmos 1025 Rocket 3.0 00:50:34 25° S 00:53:07 89° WNW 00:57:27 10° N
Cosmos 2221 Rocket 4.3 00:51:16 20° SW 00:54:03 44° WNW 00:58:20 10° N
BREEZE-M DEB (TANK) 2.8 00:51:16 10° W 00:57:17 40° SSW 00:58:59 20° SSE
Resurs 1-4 Rocket 3.9 00:54:12 10° NE 00:58:20 23° E 01:02:28 10° SE
NOSS 3-2 (A) 3.7 00:56:57 21° S 01:00:12 46° ESE 01:06:04 10° NE
Cosmos 1606 3.6 00:57:42 10° N 01:01:07 42° ENE 01:04:04 13° SE
Nadezhda 3 Rocket 4.2 00:55:37 10° NNW 01:01:47 60° W 01:06:12 19° SSW
Cosmos 2263 Rocket 2.7 00:58:49 19° S 01:02:31 49° ESE 01:07:52 10° NE
CZ-4C R/B 2.8 00:58:23 10° WSW 01:03:07 53° NW 01:09:09 10° NE
Cosmos 1898 Rocket 4.0 01:01:19 19° S 01:04:47 48° ESE 01:09:45 10° NNE
COSMOS 2455 3.9 00:59:45 10° WSW 01:05:28 43° NW 01:11:15 10° NNE
Orbus 7S? 2.8 01:03:19 10° WNW 01:06:00 76° NNE 01:09:29 10° ESE
MOZ.5/SAFIR/RUBIN 5/SL-8 3.9 01:05:48 13° SSE 01:09:55 73° ENE 01:14:34 10° N
BlueWalker 3 2.2 01:09:24 10° W 01:13:08 68° N 01:16:53 10° ENE
Helios 1A Rocket 2.7 01:12:04 22° S 01:14:25 67° WSW 01:18:13 10° NNW
Cosmos 1461 4.1 01:14:31 17° SSE 01:16:34 26° ESE 01:19:52 10° ENE
Cosmos 2366 rocket 4.4 01:11:40 14° SSE 01:17:02 58° E 01:23:08 10° NNE
BREEZE-M DEB (TANK) 3.0 01:22:08 10° W 01:25:57 12° SE 01:26:11 10° SE
Cosmos 1680 Rocket 3.5 01:28:10 10° NNW 01:33:25 86° WSW 01:38:36 10° SSE
SL-19 R/B 3.9 01:30:26 10° N 01:33:29 55° WNW 01:35:06 23° SW
Cosmos 1818 3.6 01:28:57 10° NW 01:34:25 69° SW 01:39:50 10° SSE
In-Cosmos 22 Rocket 4.3 01:29:58 17° SSW 01:34:30 81° WNW 01:40:23 10° N
Cosmos 2112 Rocket 4.0 01:30:19 10° NNW 01:35:33 85° ENE 01:40:45 10° SSE
SL-16 R/B 2.8 01:31:51 10° NW 01:37:04 38° WSW 01:41:09 15° SSW
SL-16 R/B 3.6 01:33:55 10° SE 01:39:48 46° ENE 01:45:42 10° N
Cosmos 1603 4.2 01:36:17 10° NNW 01:42:02 64° NE 01:47:43 10° SE
Cosmos 2237 Rocket 4.2 01:41:53 10° WNW 01:43:24 11° W 01:44:56 10° WSW
Cosmos 1869 3.2 01:40:15 10° NNW 01:43:55 62° W 01:46:41 17° S
Cosmos 1544 Rocket 3.6 01:41:38 10° NNW 01:46:05 72° W 01:49:58 13° S
Cosmos 292 Rocket 4.0 01:43:03 16° SW 01:46:48 64° WNW 01:51:37 10° NNE
SL-8 Rocket 4.0 01:43:18 15° SSW 01:48:32 79° W 01:54:46 10° N
USA 234 3.9 01:42:40 10° E 01:49:06 63° NNE 01:55:33 10° WNW
Cosmos 2082 3.7 01:45:35 16° SSW 01:50:14 85° WNW 01:55:54 10° NNE
IDEFIX/ARIANE 42P 2.7 01:45:14 10° NNE 01:50:31 73° ESE 01:55:13 13° S
Cosmos 2228 3.0 01:47:18 10° NNW 01:51:39 83° W 01:55:50 11° S
Cosmos 1943 3.1 01:46:39 10° NNW 01:52:17 78° WSW 01:57:53 10° SSE
Cosmos 2227 Rocket 3.2 01:47:26 10° WSW 01:52:43 39° NW 01:58:03 10° NNE
CZ-2C R/B 3.8 01:50:09 10° NNE 01:55:32 52° E 02:00:34 10° S
H-2A R/B 4.4 01:54:42 10° NNW 01:56:43 13° NW 01:58:41 10° W
GEOS 3 Rocket 4.5 01:52:08 10° NE 01:57:05 46° NW 02:01:57 10° WSW
Cosmos 1437 Rocket 3.8 01:53:39 10° SSE 01:57:13 38° E 02:00:46 10° NNE
CZ-2C R/B 2.6 01:52:03 10° SSE 01:57:20 83° WSW 02:02:48 10° NNW
CZ-2D R/B 2.5 01:53:15 10° NNE 01:58:35 62° ESE 02:03:47 10° S
Cosmos 1975 Rocket 4.0 01:58:43 14° SW 02:02:03 37° WNW 02:06:10 10° N
Cosmos 1727 Rocket 4.1 01:57:11 10° N 02:03:33 87° E 02:09:54 10° S
COBE Rocket 4.2 01:59:57 10° N 02:05:02 64° WNW 02:09:38 13° SSW
CENTAUR R/B 3.0 01:59:44 10° WSW 02:05:42 63° NW 02:13:10 10° NE
H-2A R/B 3.3 02:04:26 10° NNE 02:08:27 87° WNW 02:12:02 13° SSW
USA 238 DEB 4.3 02:06:34 10° S 02:12:17 42° ESE 02:18:32 10° NE
USA 238 4.4 02:06:36 10° S 02:12:20 42° ESE 02:18:35 10° NE
Cosmos 2297 Rocket 4.2 02:09:22 10° W 02:13:38 21° NW 02:17:56 10° NNE
Cosmos 2219 4.0 02:09:38 10° WSW 02:15:00 44° NW 02:20:24 10° NNE
NPP 3.7 02:09:38 10° NNE 02:15:03 78° WNW 02:20:16 11° SSW
ASTEX 1 3.7 02:16:46 10° SSE 02:21:35 69° E 02:26:26 10° N
Cosmos 1606 Rocket 3.7 02:17:10 10° N 02:21:39 78° ENE 02:26:04 10° SSE
Aureole 1 Rocket 4.4 02:20:12 10° WSW 02:23:32 29° NW 02:27:36 10° N
Cosmos 1867 4.4 02:18:46 10° S 02:23:54 44° ESE 02:29:06 10° NE
Cosmos 921 Rocket 2.9 02:19:37 10° NNW 02:23:54 90° WSW 02:28:05 10° SSE
Cosmos 2227 4.4 02:18:50 11° SSW 02:24:25 75° ESE 02:30:12 10° NNE
ADEOS II 2.3 02:20:30 10° NNE 02:25:45 71° ESE 02:30:59 10° S
Cosmos 494 Rocket 4.0 02:22:04 10° NNW 02:27:18 78° WSW 02:32:33 10° SSE
Cosmos 1536 Rocket 3.7 02:27:08 10° SSW 02:31:31 63° WNW 02:35:56 10° N
Cosmos 1900 4.5 02:28:54 10° SSW 02:33:58 83° SE 02:39:04 10° NE
Cosmos 1844 4.5 02:28:46 10° S 02:34:16 49° ESE 02:39:51 10° NE
Cosmos 1606 4.4 02:33:10 10° NW 02:35:30 17° W 02:37:49 10° SW
Cosmos 1238 Rocket 4.5 02:33:29 10° N 02:36:43 30° ENE 02:39:35 10° SE
Cosmos 1726 Rocket 3.7 02:32:46 10° N 02:37:15 83° E 02:41:41 10° SSE
Resurs 1-4 Rocket 2.3 02:33:21 10° N 02:38:34 64° WNW 02:43:47 10° SSW
Cosmos 724 4.3 02:36:34 10° NW 02:42:25 90° WSW 02:48:16 10° SE
Cosmos 1937 Rocket 4.3 02:38:36 10° SW 02:43:36 42° WNW 02:48:36 10° NNE
Iridium 4 Rocket 4.1 02:41:44 10° N 02:45:59 50° E 02:50:34 10° SSE
Cosmos 2263 Rocket 3.2 02:41:25 10° WSW 02:46:35 37° NW 02:51:47 10° NNE
NOSS 3-2 (A) 4.1 02:45:36 10° WSW 02:50:58 50° NNW 02:57:28 10° NE
BlueWalker 3 2.1 02:47:45 10° WNW 02:51:31 74° NNE 02:55:16 10° E
Cosmos 1812 2.7 02:48:46 10° N 02:52:22 78° E 02:55:56 10° SSE
Cosmos 1821 Rocket 4.3 02:46:44 10° SSW 02:52:42 55° WNW 02:58:45 10° N
CZ-4C R/B 4.3 02:48:08 10° WNW 02:52:53 28° N 02:58:40 10° NE
Cosmos 1461 3.5 02:50:45 10° WSW 02:54:34 46° NW 02:58:19 10° NNE
USA 267 3.9 02:48:21 10° ENE 02:54:39 47° SE 03:00:54 10° SSW
Cosmos 2058 3.9 02:51:28 10° SSE 02:55:20 45° E 02:59:16 10° NNE
NOSS 3-2 (C) 3.5 02:51:09 10° SW 02:56:34 75° NW 03:03:08 10° NE
BREEZE M DEB (TANK) 4.3 02:42:11 10° W 02:57:15 73° SSW 03:01:25 10° ESE
